sat.trackr.live / text

‹ back to catalog

STARLINK-34960

NORAD 65219 · 2025-176X

PAYLOAD ACTIVE UNKNOWN

§ Identity

Operator
Country
US
Launch date
2025-08-14
Launch site
AFETR
Launch vehicle
Mass (kg)
RCS (m²)

Purposes: comms

External: N2YO · Heavens-Above · Gunter

§ Orbital elements

Epoch: 2026-05-23T08:11:42.789408Z

Period
94.11 min
Inclination
53.1586°
Eccentricity
0.0001036
Mean motion
15.30193504 rev/d
Perigee alt
474.5 km
Apogee alt
475.9 km
Semi-major
6,853.4 km
B*
4.9552e-4
RAAN
165.7160°
Arg perigee
80.3530°
Mean anomaly
279.7588°
Rev number
4,455

§ Raw data

STARLINK-349601 65219U 25176X   26143.34146747  .00014342  00000+0  49552-3 0  99972 65219  53.1586 165.7160 0001036  80.3530 279.7588 15.30193504 44553

JSON: /api/v1/satellites/65219 · /tle

For live sub-satellite position, see the globe view (requires WebGL).

§ Visibility from observer

Set your observer location to see the next 7 days of passes ≥ 10°. The values pass through the URL so the page stays shareable.

No JS? Fill the form by hand. The geolocation button needs JavaScript.